This is the latest recevied weather packets stored in our database for station/object CE3MXM-12. If no packets are shown the sender has not sent any weather packets the latest 10 day(s).
| Time | Temp. | Humidity | Pressure | Rain* | Wind** | Luminosity | Snow |
|---|---|---|---|---|---|---|---|
| 1777838953 | 22.22° C | 30% | 1016.1 hPa | - | - | - | - |
| 1777838653 | 22.22° C | 31% | 1016 hPa | - | - | - | - |
| 1777838353 | 22.22° C | 31% | 1016 hPa | - | - | - | - |
| 1777838053 | 22.22° C | 30% | 1016.1 hPa | - | - | - | - |
| 1777837753 | 22.22° C | 31% | 1016.1 hPa | - | - | - | - |
| 1777837453 | 22.22° C | 30% | 1016.3 hPa | - | - | - | - |
| 1777837153 | 22.22° C | 29% | 1016.4 hPa | - | - | - | - |
| 1777836853 | 22.78° C | 29% | 1016.3 hPa | - | - | - | - |
| 1777836552 | 22.78° C | 25% | 1016.2 hPa | - | - | - | - |
| 1777836253 | 22.78° C | 25% | 1016.3 hPa | - | - | - | - |
| 1777835952 | 22.78° C | 27% | 1016.1 hPa | - | - | - | - |
| 1777835652 | 22.78° C | 27% | 1016.2 hPa | - | - | - | - |
| 1777835352 | 22.22° C | 27% | 1016.2 hPa | - | - | - | - |
| 1777835052 | 22.78° C | 28% | 1016.3 hPa | - | - | - | - |
| 1777834752 | 23.33° C | 28% | 1016.2 hPa | - | - | - | - |
| 1777834452 | 23.89° C | 28% | 1016.2 hPa | - | - | - | - |
| 1777834152 | 23.89° C | 28% | 1016.2 hPa | - | - | - | - |
| 1777833852 | 23.89° C | 26% | 1016.1 hPa | - | - | - | - |
| 1777833551 | 23.33° C | 27% | 1016.3 hPa | - | - | - | - |
| 1777833251 | 23.33° C | 26% | 1016.1 hPa | - | - | - | - |
| 1777832951 | 24.44° C | 25% | 1016.2 hPa | - | - | - | - |
| 1777832651 | 23.89° C | 26% | 1016.2 hPa | - | - | - | - |
| 1777832351 | 23.89° C | 26% | 1016.3 hPa | - | - | - | - |
| 1777832051 | 23.89° C | 23% | 1016.2 hPa | - | - | - | - |
| 1777831751 | 23.89° C | 22% | 1016.5 hPa | - | - | - | - |
* Rain since midnight (hover to see other rain measurements)
** Current wind speed in m/s (hover to see current wind gust speed)